COSMOS 2491 DEB, 57556

Orbit data source: Space-Track

COSMOS 2491 DEB, 57556 is space debris in LEO originally from a launch on Wed, 25 Dec 2013 UTC launched from the Plesetsk Missile And Space Complex (PKMTR). Debris objects in space refer to the collection of defunct objects orbiting the Earth. Examples of debris include non-operational satellites, rocket bodies, and fragments generated from explosions, collisions, or faulty payload assembly.

Loading next visibility...
Identifier
57556, 2013-076AT
Orbit
LEO
Country
Flag of CISCIS
Related business
Manufacturer
TsNIIKhM
Mission
Spacecraft
Bus & Motor
Unknown
Mass
Unknown
Launch date (UTC)
2013-12-25 (13 years ago)
Launch vehicle
Unknown
Launch site
Plesetsk Missile And Space Complex (PKMTR)
Object type
Payload
Rocket body
Debris
Shape & HBR
Unknown shape, 0.1 m
Radar Cross Section
Small (<0.1 m²)

Expand to show TLE details & history
Last TLE update: 1 month ago

TLE from 1 month ago
0 COSMOS 2491 DEB
1 57556U 13076AT  26218.04171062  .00001060  00000-0  68510-2 0  9994
2 57556  82.4676 128.6508 0032354   1.0844 359.0305 12.50541559147865
Epoch: 2026-08-06T01:00Z
TLE epoch observation values (Epoch: 2026-08-06T01:00:03.797Z)
Latitude
0.00002°
Longitude
159.04753°
Altitude
1,439.573 km
Speed
7.153 km/s
True Right ascension
08h 34m 36s
True Declination
0° 00' 00"
Sunlit
Object was in daylight at epoch
Visualization orbit readout
Latitude
Unknown
Longitude
Unknown
Altitude
Unknown
Speed
Unknown
Apparent Right ascension
Unknown
Apparent Declination
Unknown
Sunlit
N/A
Visualization observer readout
Local Sidereal Time
21:39:47
Azimuth
Unknown
Elevation
Unknown
Doppler factor
Unknown
Orbital elements
Apogee altitude
1,484.93 km
Perigee altitude
1,434.214 km
Semi-major axis
7,837.709 km
Eccentricity
0.00324
Inclination
82.4676°
RAAN
128.6508°
Arg. of periapsis
1.0844°
True anomaly
359.0242°
Mean anomaly
359.0305°
Eccentric anomaly
359.02735°
Mean motion
3.12795 °/min
Orbital period
115.09 mins
BSTAR
0.006851
Loading maneuver chart data...
Computing Atmospheric mass density...
Loading historical data...
Loading historical data...
Loading historical data...
Loading historical data...
Loading historical data...
Loading historical data...
Loading historical data...

Documentation

Showing up to 5 results
|